TimePDT,TemperatureF,Dew PointF,Humidity,Sea Level PressureIn,VisibilityMPH,Wind Direction,Wind SpeedMPH,Gust SpeedMPH,PrecipitationIn,Events,Conditions,WindDirDegrees,DateUTC
12:15 AM,39.2,28.4,65,29.83,10.0,NW,18.4,-,N/A,,Overcast,310,2013-05-22 07:15:00
12:35 AM,39.2,28.4,65,29.83,10.0,NW,15.0,-,0.01,,Overcast,310,2013-05-22 07:35:00
12:55 AM,39.2,28.4,65,29.82,10.0,NNW,11.5,-,0.01,,Overcast,340,2013-05-22 07:55:00
1:15 AM,39.2,28.4,65,29.83,10.0,NNW,10.4,-,N/A,,Overcast,340,2013-05-22 08:15:00
1:35 AM,39.2,28.4,65,29.84,10.0,NNW,6.9,-,N/A,,Overcast,340,2013-05-22 08:35:00
1:55 AM,39.2,28.4,65,29.84,10.0,NNW,5.8,-,N/A,,Overcast,330,2013-05-22 08:55:00
2:15 AM,39.2,28.4,65,29.84,10.0,NNW,8.1,-,N/A,,Overcast,340,2013-05-22 09:15:00
2:35 AM,39.2,28.4,65,29.84,10.0,North,8.1,-,N/A,,Overcast,350,2013-05-22 09:35:00
2:55 AM,37.4,28.4,70,29.84,10.0,Calm,Calm,-,N/A,,Overcast,0,2013-05-22 09:55:00
3:15 AM,37.4,26.6,65,29.85,10.0,Calm,Calm,-,N/A,,Overcast,0,2013-05-22 10:15:00
3:35 AM,39.2,28.4,65,29.85,10.0,NNW,10.4,-,N/A,,Overcast,330,2013-05-22 10:35:00
3:55 AM,37.4,26.6,65,29.85,10.0,NNW,8.1,-,N/A,,Overcast,330,2013-05-22 10:55:00
4:15 AM,37.4,26.6,65,29.85,10.0,North,6.9,-,N/A,,Scattered Clouds,10,2013-05-22 11:15:00
4:35 AM,37.4,26.6,65,29.85,10.0,North,6.9,-,N/A,,Mostly Cloudy,10,2013-05-22 11:35:00
4:55 AM,37.4,26.6,65,29.85,10.0,NNW,6.9,-,N/A,,Overcast,340,2013-05-22 11:55:00
5:15 AM,39.2,26.6,61,29.85,10.0,NW,6.9,-,N/A,,Overcast,320,2013-05-22 12:15:00
5:35 AM,39.2,26.6,61,29.85,10.0,NW,4.6,-,N/A,,Overcast,320,2013-05-22 12:35:00
5:55 AM,39.2,24.8,56,29.85,10.0,WNW,8.1,-,N/A,,Overcast,300,2013-05-22 12:55:00
6:15 AM,39.2,24.8,56,29.86,10.0,NNW,8.1,-,N/A,,Overcast,330,2013-05-22 13:15:00
6:35 AM,39.2,24.8,56,29.86,10.0,North,4.6,-,N/A,,Overcast,350,2013-05-22 13:35:00
6:55 AM,39.2,24.8,56,29.86,10.0,NW,11.5,-,N/A,,Overcast,310,2013-05-22 13:55:00
7:15 AM,39.2,24.8,56,29.87,10.0,West,8.1,-,N/A,,Overcast,270,2013-05-22 14:15:00
7:35 AM,39.2,24.8,56,29.87,10.0,WNW,8.1,-,N/A,,Overcast,300,2013-05-22 14:35:00
7:55 AM,39.2,24.8,56,29.88,10.0,NNW,8.1,-,N/A,,Overcast,330,2013-05-22 14:55:00
8:15 AM,39.2,24.8,56,29.88,10.0,NW,4.6,-,N/A,,Overcast,320,2013-05-22 15:15:00
8:35 AM,39.2,24.8,56,29.89,10.0,NW,4.6,-,N/A,,Overcast,310,2013-05-22 15:35:00
8:55 AM,41.0,24.8,53,29.89,10.0,SE,9.2,-,N/A,,Overcast,130,2013-05-22 15:55:00
9:15 AM,39.2,26.6,61,29.89,10.0,SE,10.4,-,N/A,,Overcast,130,2013-05-22 16:15:00
9:35 AM,41.0,26.6,57,29.90,10.0,SE,13.8,-,N/A,,Overcast,140,2013-05-22 16:35:00
9:55 AM,39.2,28.4,65,29.90,10.0,SE,12.7,-,N/A,,Overcast,130,2013-05-22 16:55:00
10:15 AM,42.8,30.2,61,29.89,10.0,SE,11.5,-,N/A,,Mostly Cloudy,130,2013-05-22 17:15:00
10:35 AM,42.8,30.2,61,29.89,10.0,ESE,12.7,-,N/A,,Mostly Cloudy,120,2013-05-22 17:35:00
10:55 AM,44.6,28.4,53,29.89,10.0,ESE,10.4,-,N/A,,Overcast,120,2013-05-22 17:55:00
11:15 AM,42.8,28.4,57,29.89,10.0,ESE,10.4,-,N/A,,Overcast,120,2013-05-22 18:15:00
11:35 AM,44.6,28.4,53,29.89,10.0,South,9.2,-,N/A,,Mostly Cloudy,170,2013-05-22 18:35:00
11:55 AM,46.4,26.6,46,29.89,10.0,SE,13.8,-,N/A,,Mostly Cloudy,140,2013-05-22 18:55:00
12:15 PM,44.6,26.6,49,29.89,10.0,SE,12.7,-,N/A,,Mostly Cloudy,140,2013-05-22 19:15:00
12:35 PM,42.8,26.6,53,29.90,10.0,SE,11.5,-,N/A,,Overcast,140,2013-05-22 19:35:00
12:55 PM,42.8,28.4,57,29.90,10.0,SE,12.7,-,N/A,,Mostly Cloudy,130,2013-05-22 19:55:00
1:15 PM,46.4,30.2,53,29.89,10.0,SE,11.5,-,N/A,,Scattered Clouds,140,2013-05-22 20:15:00
1:35 PM,44.6,28.4,53,29.90,10.0,SE,15.0,18.4,N/A,,Mostly Cloudy,130,2013-05-22 20:35:00
1:55 PM,44.6,24.8,46,29.91,10.0,SE,10.4,-,N/A,,Overcast,140,2013-05-22 20:55:00
2:15 PM,44.6,28.4,53,29.91,10.0,SSE,4.6,-,N/A,,Mostly Cloudy,160,2013-05-22 21:15:00
2:35 PM,44.6,28.4,53,29.92,10.0,SSE,13.8,-,N/A,,Mostly Cloudy,160,2013-05-22 21:35:00
2:55 PM,44.6,28.4,53,29.92,10.0,SSE,4.6,-,N/A,,Scattered Clouds,150,2013-05-22 21:55:00
3:15 PM,46.4,28.4,50,29.92,10.0,SW,4.6,-,N/A,,Mostly Cloudy,220,2013-05-22 22:15:00
3:35 PM,50.0,30.2,47,29.92,10.0,Calm,Calm,-,N/A,,Scattered Clouds,0,2013-05-22 22:35:00
3:55 PM,48.2,26.6,43,29.91,10.0,South,4.6,-,N/A,,Mostly Cloudy,170,2013-05-22 22:55:00
4:15 PM,51.8,28.4,41,29.91,10.0,East,5.8,-,N/A,,Scattered Clouds,90,2013-05-22 23:15:00
4:35 PM,48.2,26.6,43,29.91,10.0,SE,6.9,-,N/A,,Partly Cloudy,140,2013-05-22 23:35:00
4:55 PM,46.4,26.6,46,29.92,10.0,SE,12.7,-,N/A,,Mostly Cloudy,130,2013-05-22 23:55:00
5:15 PM,48.2,28.4,46,29.92,10.0,ESE,3.5,-,N/A,,Mostly Cloudy,120,2013-05-23 00:15:00
5:35 PM,48.2,26.6,43,29.92,10.0,SE,3.5,-,N/A,,Mostly Cloudy,130,2013-05-23 00:35:00
5:55 PM,48.2,26.6,43,29.91,10.0,South,5.8,-,N/A,,Overcast,170,2013-05-23 00:55:00
6:15 PM,48.2,28.4,46,29.91,10.0,SE,5.8,16.1,N/A,,Mostly Cloudy,130,2013-05-23 01:15:00
6:35 PM,48.2,28.4,46,29.91,10.0,Calm,Calm,-,N/A,,Mostly Cloudy,0,2013-05-23 01:35:00
6:55 PM,48.2,26.6,43,29.92,10.0,Calm,Calm,-,N/A,,Overcast,0,2013-05-23 01:55:00
7:15 PM,44.6,28.4,53,29.93,10.0,North,6.9,-,N/A,,Mostly Cloudy,10,2013-05-23 02:15:00
7:35 PM,44.6,30.2,57,29.93,10.0,North,8.1,-,N/A,,Mostly Cloudy,10,2013-05-23 02:35:00
7:55 PM,42.8,28.4,57,29.93,10.0,NNE,5.8,-,N/A,,Scattered Clouds,20,2013-05-23 02:55:00
8:15 PM,42.8,28.4,57,29.93,10.0,NNE,6.9,-,N/A,,Clear,20,2013-05-23 03:15:00
8:35 PM,41.0,28.4,61,29.94,10.0,ENE,5.8,-,N/A,,Scattered Clouds,60,2013-05-23 03:35:00
8:55 PM,39.2,28.4,65,29.94,10.0,NNE,5.8,-,N/A,,Partly Cloudy,30,2013-05-23 03:55:00
9:15 PM,39.2,28.4,65,29.95,10.0,North,3.5,-,N/A,,Clear,360,2013-05-23 04:15:00
9:35 PM,37.4,26.6,65,29.96,10.0,WNW,3.5,-,N/A,,Partly Cloudy,300,2013-05-23 04:35:00
9:55 PM,37.4,26.6,65,29.96,10.0,South,4.6,-,N/A,,Clear,170,2013-05-23 04:55:00
10:15 PM,35.6,24.8,65,29.96,10.0,West,4.6,-,N/A,,Clear,280,2013-05-23 05:15:00
10:35 PM,37.4,26.6,65,29.96,10.0,NW,4.6,-,N/A,,Clear,310,2013-05-23 05:35:00
10:55 PM,35.6,26.6,70,29.96,10.0,Calm,Calm,-,N/A,,Clear,0,2013-05-23 05:55:00
11:15 PM,35.6,26.6,70,29.96,10.0,Calm,Calm,-,N/A,,Clear,0,2013-05-23 06:15:00
11:35 PM,35.6,24.8,65,29.96,10.0,Calm,Calm,-,N/A,,Clear,0,2013-05-23 06:35:00
11:55 PM,32.0,21.2,64,29.96,10.0,Calm,Calm,-,N/A,,Clear,0,2013-05-23 06:55:00